GW2585 Weather Reports


Display with metric or nautical units.
time (UTC)temp
F
wind
direction
speed
MPH
gust
MPH
rain 1hr
in
rain 24hr
in
rain mn
in
humidity
%
barometer
mb
20260906201209 103 131 0.0 0.0 0.00 0.00 0.00 38 1011.3
20260906200705 103 345 1.0 1.0 0.00 0.00 0.00 39 1011.5
20260906200201 103 132 0.0 0.0 0.00 0.00 0.00 39 1011.6
20260906195656 102 114 0.0 1.0 0.00 0.00 0.00 38 1011.6
20260906195153 102 207 1.0 2.0 0.00 0.00 0.00 38 1011.7
20260906194649 102 307 0.0 0.0 0.00 0.00 0.00 39 1011.7
20260906194143 103 291 0.0 0.0 0.00 0.00 0.00 39 1011.6
20260906193638 102 123 0.0 1.0 0.00 0.00 0.00 38 1011.9
20260906193134 103 79 1.0 1.0 0.00 0.00 0.00 37 1011.9
20260906192629 102 126 1.0 2.0 0.00 0.00 0.00 41 1011.8
20260906192128 101 137 0.0 1.0 0.00 0.00 0.00 42 1011.6
20260906191624 100 124 0.0 0.0 0.00 0.00 0.00 40 1012.0
20260906191122 100 186 1.0 1.0 0.00 0.00 0.00 42 1012.2
20260906190617 101 221 1.0 1.0 0.00 0.00 0.00 40 1012.2
20260906190112 101 133 0.0 0.0 0.00 0.00 0.00 41 1012.4
20260906185610 102 152 0.0 1.0 0.00 0.00 0.00 41 1012.6
20260906185109 102 127 0.0 0.0 0.00 0.00 0.00 42 1012.4
20260906184604 101 134 0.0 0.0 0.00 0.00 0.00 41 1012.3
20260906184100 101 162 0.0 0.0 0.00 0.00 0.00 40 1012.7
20260906183556 101 112 0.0 1.0 0.00 0.00 0.00 42 1012.7
20260906183052 101 209 1.0 1.0 0.00 0.00 0.00 41 1012.8
20260906182546 101 105 0.0 0.0 0.00 0.00 0.00 41 1012.7
20260906182043 101 155 0.0 0.0 0.00 0.00 0.00 41 1012.9
20260906181538 100 139 0.0 0.0 0.00 0.00 0.00 43 1012.9
20260906181034 100 154 0.0 0.0 0.00 0.00 0.00 41 1013.3
20260906180528 100 168 0.0 0.0 0.00 0.00 0.00 43 1013.3
20260906180027 100 139 0.0 0.0 0.00 0.00 0.00 41 1013.3
20260906175526 100 183 0.0 1.0 0.00 0.00 0.00 46 1013.3
20260906175027 99 294 1.0 1.0 0.00 0.00 0.00 43 1013.4
20260906174525 99 141 0.0 0.0 0.00 0.00 0.00 44 1013.6
20260906174020 98 146 0.0 0.0 0.00 0.00 0.00 44 1013.7
20260906173515 98 146 0.0 1.0 0.00 0.00 0.00 45 1013.9
20260906173011 98 341 0.0 1.0 0.00 0.00 0.00 44 1013.8
20260906172505 97 150 1.0 1.0 0.00 0.00 0.00 46 1013.7
20260906172000 97 158 1.0 1.0 0.00 0.00 0.00 50 1013.7
20260906171455 97 140 0.0 0.0 0.00 0.00 0.00 51 1013.9
20260906170950 97 130 0.0 0.0 0.00 0.00 0.00 44 1014.2
20260906170446 98 158 0.0 1.0 0.00 0.00 0.00 47 1014.2
20260906165943 98 128 0.0 0.0 0.00 0.00 0.00 46 1014.2
20260906165442 97 127 0.0 0.0 0.00 0.00 0.00 45 1014.4
20260906164938 97 134 0.0 0.0 0.00 0.00 0.00 46 1014.3
20260906164436 97 135 0.0 0.0 0.00 0.00 0.00 46 1014.4
20260906163933 97 128 0.0 0.0 0.00 0.00 0.00 46 1014.3
20260906163428 96 268 1.0 1.0 0.00 0.00 0.00 47 1014.4
20260906162926 96 133 0.0 1.0 0.00 0.00 0.00 49 1014.3
20260906162425 96 154 0.0 0.0 0.00 0.00 0.00 51 1014.6
20260906161921 95 151 0.0 0.0 0.00 0.00 0.00 52 1014.7
20260906161420 94 126 0.0 0.0 0.00 0.00 0.00 52 1014.6
20260906160919 93 137 0.0 0.0 0.00 0.00 0.00 54 1014.8
20260906160413 93 345 0.0 0.0 0.00 0.00 0.00 52 1014.6
20260906155910 93 324 1.0 2.0 0.00 0.00 0.00 52 1014.4
20260906155404 93 141 0.0 0.0 0.00 0.00 0.00 54 1014.8
20260906154901 92 323 0.0 1.0 0.00 0.00 0.00 56 1014.7
20260906154355 92 322 0.0 1.0 0.00 0.00 0.00 57 1014.3
20260906153853 91 322 0.0 0.0 0.00 0.00 0.00 58 1014.6
20260906153347 91 330 0.0 0.0 0.00 0.00 0.00 59 1014.3
20260906152842 90 330 0.0 1.0 0.00 0.00 0.00 58 1014.6
20260906152337 90 131 0.0 0.0 0.00 0.00 0.00 64 1014.2
20260906151836 89 135 0.0 0.0 0.00 0.00 0.00 59 1014.4
20260906151332 89 153 0.0 0.0 0.00 0.00 0.00 60 1014.4
20260906150828 88 128 0.0 0.0 0.00 0.00 0.00 66 1014.1
20260906150323 87 135 0.0 0.0 0.00 0.00 0.00 69 1014.4
20260906145822 87 137 0.0 0.0 0.00 0.00 0.00 68 1014.1
20260906145321 87 137 0.0 0.0 0.00 0.00 0.00 67 1014.2
20260906144816 88 135 0.0 0.0 0.00 0.00 0.00 67 1014.2
20260906144311 87 129 0.0 0.0 0.00 0.00 0.00 65 1014.1
20260906143811 87 130 0.0 0.0 0.00 0.00 0.00 66 1014.2
20260906143308 87 132 0.0 0.0 0.00 0.00 0.00 65 1014.3
20260906142802 87 132 0.0 0.0 0.00 0.00 0.00 63 1014.1
20260906142257 87 140 0.0 0.0 0.00 0.00 0.00 65 1014.2
20260906141756 87 140 0.0 0.0 0.00 0.00 0.00 64 1014.3
20260906141251 86 125 0.0 0.0 0.00 0.00 0.00 67 1013.9
20260906140750 86 125 0.0 0.0 0.00 0.00 0.00 66 1014.0
20260906140245 85 125 0.0 0.0 0.00 0.00 0.00 69 1014.0
20260906135742 84 125 0.0 0.0 0.00 0.00 0.00 71 1014.0
20260906135238 82 125 0.0 0.0 0.00 0.00 0.00 72 1014.0
20260906134734 81 125 0.0 0.0 0.00 0.00 0.00 75 1013.9
20260906134229 80 125 0.0 0.0 0.00 0.00 0.00 78 1013.6
20260906133724 79 125 0.0 0.0 0.00 0.00 0.00 78 1013.5
20260906133220 78 125 0.0 0.0 0.00 0.00 0.00 80 1013.6
20260906132715 78 125 0.0 0.0 0.00 0.00 0.00 81 1013.5
20260906132211 77 125 0.0 0.0 0.00 0.00 0.00 82 1013.6
20260906131706 76 125 0.0 0.0 0.00 0.00 0.00 83 1013.5
20260906131201 76 125 0.0 0.0 0.00 0.00 0.00 84 1013.5
20260906130656 76 125 0.0 0.0 0.00 0.00 0.00 84 1013.4
20260906130151 75 125 0.0 0.0 0.00 0.00 0.00 85 1013.6
20260906125649 75 134 0.0 0.0 0.00 0.00 0.00 85 1013.5
20260906125148 75 128 0.0 0.0 0.00 0.00 0.00 85 1013.4
20260906124644 75 129 0.0 0.0 0.00 0.00 0.00 86 1013.6
20260906124139 74 129 0.0 0.0 0.00 0.00 0.00 86 1013.5
20260906123638 74 122 0.0 0.0 0.00 0.00 0.00 86 1013.2
20260906123133 74 122 0.0 0.0 0.00 0.00 0.00 86 1012.9
20260906122632 74 122 0.0 0.0 0.00 0.00 0.00 86 1013.3
20260906122128 74 122 0.0 0.0 0.00 0.00 0.00 86 1013.2
20260906121624 74 122 0.0 0.0 0.00 0.00 0.00 86 1013.0
20260906121120 74 122 0.0 0.0 0.00 0.00 0.00 86 1013.2
20260906120615 74 122 0.0 0.0 0.00 0.00 0.00 87 1012.7
20260906120112 74 122 0.0 0.0 0.00 0.00 0.00 87 1012.8
20260906115607 74 122 0.0 0.0 0.00 0.00 0.00 87 1012.8
20260906115102 74 122 0.0 0.0 0.00 0.00 0.00 87 1012.9
20260906114556 74 122 0.0 0.0 0.00 0.00 0.00 87 1012.7
20260906114051 74 122 0.0 0.0 0.00 0.00 0.00 87 1012.8
20260906113550 74 122 0.0 0.0 0.00 0.00 0.00 87 1012.8
20260906113045 74 122 0.0 0.0 0.00 0.00 0.00 86 1012.9
20260906112540 74 122 0.0 0.0 0.00 0.00 0.00 86 1012.5
20260906112037 74 122 0.0 0.0 0.00 0.00 0.00 86 1012.4
20260906111536 74 122 0.0 0.0 0.00 0.00 0.00 86 1012.5
20260906111032 74 122 0.0 0.0 0.00 0.00 0.00 86 1012.6
20260906110531 74 122 0.0 0.0 0.00 0.00 0.00 85 1012.4
20260906110031 74 122 0.0 0.0 0.00 0.00 0.00 85 1012.4
20260906105526 74 122 0.0 0.0 0.00 0.00 0.00 85 1012.6
20260906105022 74 122 0.0 0.0 0.00 0.00 0.00 85 1012.4
20260906104520 74 122 0.0 0.0 0.00 0.00 0.00 85 1012.3
20260906104015 75 122 0.0 0.0 0.00 0.00 0.00 85 1012.1
20260906103513 75 122 0.0 0.0 0.00 0.00 0.00 85 1012.4
20260906103009 75 122 0.0 0.0 0.00 0.00 0.00 85 1012.1
20260906102508 75 122 0.0 0.0 0.00 0.00 0.00 85 1012.3
20260906102003 75 122 0.0 0.0 0.00 0.00 0.00 85 1012.4
20260906101457 75 122 0.0 0.0 0.00 0.00 0.00 85 1012.3
20260906100953 75 122 0.0 0.0 0.00 0.00 0.00 84 1012.4
20260906100448 75 122 0.0 0.0 0.00 0.00 0.00 84 1012.2
20260906095942 75 122 0.0 0.0 0.00 0.00 0.00 84 1012.2
20260906095437 75 122 0.0 0.0 0.00 0.00 0.00 84 1012.2
20260906094932 75 122 0.0 0.0 0.00 0.00 0.00 84 1012.3
20260906094426 76 122 0.0 0.0 0.00 0.00 0.00 84 1012.2
20260906093922 76 122 0.0 0.0 0.00 0.00 0.00 84 1012.1
20260906093418 76 122 0.0 0.0 0.00 0.00 0.00 84 1012.1
20260906092913 76 120 0.0 0.0 0.00 0.00 0.00 84 1012.3
20260906092413 76 119 0.0 0.0 0.00 0.00 0.00 84 1012.0
20260906091908 76 123 0.0 0.0 0.00 0.00 0.00 85 1012.3
20260906091404 76 122 0.0 0.0 0.00 0.00 0.00 84 1012.3
20260906090901 76 123 0.0 0.0 0.00 0.00 0.00 84 1012.4
20260906090400 76 123 0.0 0.0 0.00 0.00 0.00 83 1012.2
20260906085854 76 123 0.0 0.0 0.00 0.00 0.00 82 1012.2
20260906085348 76 123 0.0 0.0 0.00 0.00 0.00 82 1012.0
20260906084843 76 125 0.0 0.0 0.00 0.00 0.00 82 1012.0
20260906084342 76 125 0.0 0.0 0.00 0.00 0.00 81 1011.9
20260906083837 76 125 0.0 0.0 0.00 0.00 0.00 81 1011.8
20260906083332 76 125 0.0 0.0 0.00 0.00 0.00 80 1011.9
20260906082826 76 125 0.0 0.0 0.00 0.00 0.00 80 1012.0
20260906082322 76 124 0.0 0.0 0.00 0.00 0.00 80 1011.7
20260906081818 76 124 0.0 0.0 0.00 0.00 0.00 80 1012.0
20260906081313 76 125 0.0 0.0 0.00 0.00 0.00 81 1011.9
20260906080809 76 121 0.0 0.0 0.00 0.00 0.00 80 1011.7
20260906080305 77 121 0.0 0.0 0.00 0.00 0.00 80 1011.9
20260906075804 77 121 0.0 0.0 0.00 0.00 0.00 80 1011.9
20260906075306 77 121 0.0 0.0 0.00 0.00 0.00 79 1012.0
20260906074800 77 122 0.0 0.0 0.00 0.00 0.00 80 1011.7
20260906074259 77 122 0.0 0.0 0.00 0.00 0.00 80 1011.8
20260906073759 77 122 0.0 0.0 0.00 0.00 0.00 80 1011.8
20260906073253 77 122 0.0 0.0 0.00 0.00 0.00 80 1011.8
20260906072749 77 122 0.0 0.0 0.00 0.00 0.00 79 1011.8
20260906072245 77 123 0.0 0.0 0.00 0.00 0.00 79 1011.8
20260906071741 77 123 0.0 0.0 0.00 0.00 0.00 79 1011.7
20260906071241 78 123 0.0 0.0 0.00 0.00 0.00 78 1011.8
20260906070737 78 123 0.0 0.0 0.00 0.00 0.00 78 1011.7
20260906070233 78 123 0.0 0.0 0.00 0.00 0.00 77 1011.8
20260906065732 78 123 0.0 0.0 0.00 0.00 0.00 77 1012.0
20260906065228 78 123 0.0 0.0 0.00 0.00 0.00 77 1011.8
20260906064723 78 123 0.0 0.0 0.00 0.00 0.00 77 1012.0
20260906064219 78 122 0.0 0.0 0.00 0.00 0.00 77 1012.0
20260906063714 78 123 0.0 0.0 0.00 0.00 0.00 77 1011.8
20260906063209 78 123 0.0 0.0 0.00 0.00 0.00 77 1011.7
20260906062705 78 123 0.0 0.0 0.00 0.00 0.00 77 1012.1
20260906062203 78 123 0.0 0.0 0.00 0.00 0.00 77 1012.0
20260906061659 78 123 0.0 0.0 0.00 0.00 0.00 76 1012.0
20260906061155 79 123 0.0 0.0 0.00 0.00 0.00 76 1012.3
20260906060651 79 123 0.0 0.0 0.00 0.00 0.00 76 1012.1
20260906060148 79 123 0.0 0.0 0.00 0.00 0.00 75 1012.0
20260906055643 79 123 0.0 0.0 0.00 0.00 0.00 75 1011.9
20260906055138 79 123 0.0 0.0 0.00 0.00 0.00 73 1011.9
20260906054634 79 123 0.0 0.0 0.00 0.00 0.00 73 1012.0
20260906054128 80 123 0.0 0.0 0.00 0.00 0.00 72 1011.8
20260906053625 80 124 0.0 0.0 0.00 0.00 0.00 72 1012.0
20260906053120 80 123 0.0 0.0 0.00 0.00 0.00 72 1011.8
20260906052616 80 123 0.0 0.0 0.00 0.00 0.00 71 1012.0
20260906052112 80 123 0.0 0.0 0.00 0.00 0.00 71 1012.2
20260906051608 80 124 0.0 0.0 0.00 0.00 0.00 70 1012.0
20260906051103 81 124 0.0 0.0 0.00 0.00 0.00 70 1011.9
20260906050558 81 124 0.0 0.0 0.00 0.00 0.00 69 1012.0
20260906050054 81 124 0.0 0.0 0.00 0.00 0.00 69 1011.9
20260906045551 81 124 0.0 0.0 0.00 0.00 0.00 69 1011.9
20260906045047 81 123 0.0 0.0 0.00 0.00 0.00 68 1011.8
20260906044543 81 123 0.0 0.0 0.00 0.00 0.00 69 1011.9
20260906044038 81 123 0.0 0.0 0.00 0.00 0.00 69 1011.8
20260906043534 82 123 0.0 0.0 0.00 0.00 0.00 68 1011.8
20260906043030 82 123 0.0 0.0 0.00 0.00 0.00 67 1011.7
20260906042528 82 124 0.0 0.0 0.00 0.00 0.00 67 1011.8
20260906042023 82 134 0.0 0.0 0.00 0.00 0.00 67 1011.7
20260906041519 82 134 0.0 0.0 0.00 0.00 0.00 66 1011.8
20260906041014 82 134 0.0 0.0 0.00 0.00 0.00 66 1011.9
20260906040509 82 134 0.0 0.0 0.00 0.00 0.00 66 1011.8
20260906040004 82 134 0.0 0.0 0.00 0.00 0.00 66 1011.9
20260906035459 82 134 0.0 0.0 0.00 0.00 0.00 66 1011.9
20260906034954 82 134 0.0 0.0 0.00 0.00 0.00 66 1011.9
20260906034448 82 134 0.0 0.0 0.00 0.00 0.00 66 1011.8
20260906033944 83 134 0.0 0.0 0.00 0.00 0.00 66 1011.7
20260906033438 83 134 0.0 0.0 0.00 0.00 0.00 66 1011.8
20260906032934 83 134 0.0 0.0 0.00 0.00 0.00 65 1011.7
20260906032431 83 134 0.0 0.0 0.00 0.00 0.00 66 1011.6
20260906031931 83 134 0.0 0.0 0.00 0.00 0.00 65 1011.7
20260906031426 83 134 0.0 0.0 0.00 0.00 0.00 65 1011.6
20260906030921 84 134 0.0 0.0 0.00 0.00 0.00 64 1011.6
20260906030416 84 134 0.0 0.0 0.00 0.00 0.00 64 1011.6
20260906025910 84 134 0.0 0.0 0.00 0.00 0.00 64 1011.6
20260906025405 84 134 0.0 0.0 0.00 0.00 0.00 63 1011.7
20260906024904 84 134 0.0 0.0 0.00 0.00 0.00 63 1011.4
20260906024403 84 134 0.0 0.0 0.00 0.00 0.00 63 1011.2
20260906023858 84 134 0.0 0.0 0.00 0.00 0.00 63 1011.5
20260906023354 85 134 0.0 0.0 0.00 0.00 0.00 62 1011.3
20260906022849 85 134 0.0 0.0 0.00 0.00 0.00 64 1011.4
20260906022344 85 134 0.0 0.0 0.00 0.00 0.00 62 1010.9
20260906021840 85 134 0.0 0.0 0.00 0.00 0.00 61 1011.0
20260906021339 85 134 0.0 0.0 0.00 0.00 0.00 61 1010.9
20260906020834 86 134 0.0 0.0 0.00 0.00 0.00 61 1011.1
20260906020333 86 134 0.0 0.0 0.00 0.00 0.00 61 1011.0
20260906015828 86 134 0.0 0.0 0.00 0.00 0.00 60 1010.5
20260906015327 86 134 0.0 0.0 0.00 0.00 0.00 61 1010.5
20260906014827 86 134 0.0 0.0 0.00 0.00 0.00 61 1010.5
20260906014322 86 134 0.0 0.0 0.00 0.00 0.00 60 1010.7
20260906013818 86 134 0.0 0.0 0.00 0.00 0.00 60 1010.7
20260906013313 87 134 0.0 0.0 0.00 0.00 0.00 60 1010.4
20260906012809 87 134 0.0 0.0 0.00 0.00 0.00 59 1010.4
20260906012309 87 134 0.0 0.0 0.00 0.00 0.00 59 1010.5
20260906011803 88 134 0.0 0.0 0.00 0.00 0.00 58 1010.3
20260906011258 88 134 0.0 0.0 0.00 0.00 0.00 58 1010.7
20260906010754 89 134 0.0 0.0 0.00 0.00 0.00 57 1010.5
20260906010250 89 134 0.0 0.0 0.00 0.00 0.00 56 1010.5
20260906005744 90 134 0.0 0.0 0.00 0.00 0.00 54 1010.7
20260906005238 90 134 0.0 0.0 0.00 0.00 0.00 53 1010.4
20260906004737 91 134 0.0 0.0 0.00 0.00 0.00 53 1010.3
20260906004233 91 134 0.0 0.0 0.00 0.00 0.00 52 1010.2
20260906003733 92 134 0.0 0.0 0.00 0.00 0.00 51 1010.2
20260906003228 93 134 0.0 0.0 0.00 0.00 0.00 50 1010.0
20260906002723 93 137 0.0 0.0 0.00 0.00 0.00 48 1010.4
20260906002218 94 132 0.0 0.0 0.00 0.00 0.00 48 1010.5
20260906001713 95 132 0.0 0.0 0.00 0.00 0.00 47 1010.4
20260906001214 96 140 0.0 0.0 0.00 0.00 0.00 45 1010.3
20260906000709 97 133 0.0 0.0 0.00 0.00 0.00 44 1010.4
20260906000204 98 133 0.0 0.0 0.00 0.00 0.00 42 1010.3
20260905235703 100 136 0.0 0.0 0.00 0.00 0.00 41 1010.3
20260905235158 102 124 0.0 0.0 0.00 0.00 0.00 38 1010.2
20260905234654 101 144 0.0 1.0 0.00 0.00 0.00 37 1010.0
20260905234149 102 105 0.0 0.0 0.00 0.00 0.00 37 1010.2
20260905233644 103 134 0.0 0.0 0.00 0.00 0.00 38 1010.0
20260905233143 102 133 0.0 0.0 0.00 0.00 0.00 39 1009.9
20260905232638 102 143 0.0 0.0 0.00 0.00 0.00 39 1009.9
20260905232134 103 155 0.0 0.0 0.00 0.00 0.00 38 1009.8
20260905231629 103 139 0.0 0.0 0.00 0.00 0.00 36 1009.9
20260905231125 104 145 0.0 0.0 0.00 0.00 0.00 36 1009.9
20260905230615 104 163 0.0 0.0 0.00 0.00 0.00 37 1009.8
20260905230112 103 164 0.0 0.0 0.00 0.00 0.00 36 1010.0
20260905225607 103 135 0.0 0.0 0.00 0.00 0.00 36 1009.8
20260905225101 104 138 0.0 0.0 0.00 0.00 0.00 36 1009.8
20260905224556 105 157 1.0 1.0 0.00 0.00 0.00 34 1009.9
20260905224055 105 129 0.0 0.0 0.00 0.00 0.00 34 1009.9
20260905223553 104 136 1.0 1.0 0.00 0.00 0.00 35 1009.7
20260905223048 105 144 1.0 1.0 0.00 0.00 0.00 35 1009.8
20260905222543 105 157 0.0 0.0 0.00 0.00 0.00 36 1009.8
20260905222038 104 162 0.0 0.0 0.00 0.00 0.00 35 1009.9
20260905221534 105 1 1.0 2.0 0.00 0.00 0.00 35 1010.0
20260905221030 104 165 0.0 1.0 0.00 0.00 0.00 35 1009.8
20260905220525 104 148 0.0 0.0 0.00 0.00 0.00 36 1010.1
20260905220021 104 124 0.0 0.0 0.00 0.00 0.00 35 1010.1
20260905215515 104 136 0.0 0.0 0.00 0.00 0.00 36 1009.8
20260905215012 103 127 0.0 0.0 0.00 0.00 0.00 37 1010.0
20260905214508 103 103 0.0 2.0 0.00 0.00 0.00 37 1010.2
20260905214008 102 141 0.0 0.0 0.00 0.00 0.00 35 1010.1
20260905213503 103 135 0.0 0.0 0.00 0.00 0.00 36 1010.2
20260905212958 103 216 0.0 1.0 0.00 0.00 0.00 36 1010.1
20260905212453 102 131 0.0 1.0 0.00 0.00 0.00 36 1010.1
20260905211952 102 134 0.0 0.0 0.00 0.00 0.00 36 1010.5
20260905211448 102 221 1.0 1.0 0.00 0.00 0.00 36 1010.5
20260905210944 103 143 0.0 0.0 0.00 0.00 0.00 39 1010.7
20260905210439 102 119 0.0 0.0 0.00 0.00 0.00 41 1010.7
20260905205938 102 132 1.0 1.0 0.00 0.00 0.00 37 1010.5
20260905205433 102 117 1.0 2.0 0.00 0.00 0.00 38 1010.8
20260905204932 102 147 1.0 2.0 0.00 0.00 0.00 37 1010.9
20260905204428 102 159 0.0 0.0 0.00 0.00 0.00 38 1010.9
20260905203927 102 124 0.0 0.0 0.00 0.00 0.00 40 1010.8
20260905203422 101 149 0.0 1.0 0.00 0.00 0.00 39 1011.0
20260905202918 102 118 0.0 0.0 0.00 0.00 0.00 39 1011.1
20260905202413 101 127 0.0 0.0 0.00 0.00 0.00 40 1011.0
20260905201909 101 135 0.0 1.0 0.00 0.00 0.00 40 1011.3
20260905201404 101 150 1.0 2.0 0.00 0.00 0.00 39 1011.3